Location: Arran
(51.9410°N, 101.7372°W)
Time: 08:01:09
(UTC+00:00)

SWISSCUBE - Pass Details

Date: 16 May 2025
Orbit: 685 x 693 km, 98.4° (Epoch: 20 June)

Event Time Altitude Azimuth Distance (km) Brightness Sun altitude
Rises 04:56:45 0° 22° (NNE) 3,076 ? -15.2°
Reaches altitude 10° 04:59:17 10° 34° (NE) 2,155 ? -15.4°
Maximum altitude 05:03:24 29° 95° (E) 1,256 ? -15.6°
Enters shadow 05:05:04 23° 130° (SE) 1,441 ? -15.7°
